sat.trackr.live / text

‹ back to catalog

STARLINK-2429

NORAD 47838 · 2021-018BD

PAYLOAD ACTIVE UNKNOWN

§ Identity

Operator
Country
US
Launch date
2021-03-11
Launch site
AFETR
Launch vehicle
Mass (kg)
RCS (m²)

Purposes: comms

External: N2YO · Heavens-Above · Gunter

§ Orbital elements

Epoch: 2026-09-20T01:13:16.112352Z

Period
94.01 min
Inclination
53.1612°
Eccentricity
0.0001036
Mean motion
15.31700283 rev/d
Perigee alt
470.0 km
Apogee alt
471.4 km
Semi-major
6,848.9 km
B*
-2.7891e-5
RAAN
61.2268°
Arg perigee
96.5962°
Mean anomaly
263.5158°
Rev number
30,646

§ Raw data

STARLINK-24291 47838U 21018BD  26263.05088093 -.00001230  00000+0 -27891-4 0  99922 47838  53.1612  61.2268 0001036  96.5962 263.5158 15.31700283306461

JSON: /api/v1/satellites/47838 · /tle

For live sub-satellite position, see the globe view (requires WebGL).

§ Visibility from observer

Set your observer location to see the next 7 days of passes ≥ 10°. The values pass through the URL so the page stays shareable.

No JS? Fill the form by hand. The geolocation button needs JavaScript.